#timestamp,LO_Frequency,Hit,StdDev 
1575853215.5,286047010.2,N
1575853235.3,286047010.5,N
1575853255.1,286047014.9,N
1575853275.9,286047013.6,N
1575853295.7,286047004.5,N
1575853315.5,286047001.7,N
1575853335.4,286046996.8,N
1575853355.2,286047002.3,N
1575853375.1,286046999.7,N
1575853376.0,286046999.7,N
1575853395.8,286047008.1,N
1575853415.6,286047009.6,N
1575853435.5,286047006.1,N
1575853455.3,286047008.3,N
1575853475.2,286047013.4,N
1575853495.9,286047014.6,N
1575853515.7,286047011.0,N
1575853535.6,286047018.4,Y
1575853555.4,286047018.5,P
1575853575.2,286047014.2,N
1575853595.1,286047015.8,P
1575853596.0,286047015.8,Y
1575853615.8,286046997.1,P
1575853635.7,286046995.8,N
1575853655.5,286046985.4,N
1575853675.3,286046983.7,N
1575853695.2,286046989.0,N
1575853715.0,286046991.2,N
1575853715.9,286046991.2,N
1575853735.8,286046995.1,N
1575853755.6,286046993.7,N
1575853775.4,286046992.4,N
1575853795.3,286046985.0,N
1575853815.1,286046978.2,N
1575853835.9,286046975.5,N
1575853855.7,286046975.4,N
1575853875.5,286046974.0,N
1575853895.4,286046971.3,N
1575853915.2,286046975.8,N
1575853935.1,286046989.9,N
1575853936.0,286046989.9,N
1575853955.8,286046982.2,N
1575853975.6,286046976.3,N
1575853995.5,286046972.7,N
1575854015.3,286046973.3,N
1575854035.2,286046977.1,N
1575854055.9,286046989.7,N
1575854075.7,286047000.9,N
1575854095.6,286046998.7,N
1575854115.4,286046999.7,N
1575854135.3,286047003.1,N
1575854155.1,286047007.2,N
1575854156.0,286047007.2,N
1575854175.8,286047005.3,N
1575854195.7,286046996.0,N
1575854215.5,286046992.7,N
1575854235.3,286046987.4,N
1575854255.2,286046984.5,N
1575854275.0,286046996.4,N
1575854275.9,286046996.4,N
1575854295.8,286046993.4,N
1575854315.6,286046990.9,N
1575854335.4,286046984.9,N
1575854355.3,286046979.7,N
1575854375.1,286046982.6,N
1575854395.9,286046986.5,N
1575854445.7,286046993.7,E
1575854455.6,286046996.4,N
1575854475.5,286046994.3,P
1575854495.3,286046996.3,P
1575854515.2,286047003.4,Y
1575854535.9,286047008.0,P
1575854555.7,286047005.8,N
1575854575.6,286047000.0,N
1575854595.4,286047000.5,N
1575854615.3,286046998.4,N
1575854635.1,286047001.9,N
1575854636.0,286047001.9,N
1575854655.8,286047006.5,N
1575854675.7,286047009.6,N
1575854695.5,286047006.3,N
1575854715.3,286047011.8,N
1575854735.2,286047013.0,N
1575854755.0,286047014.7,N
1575854755.9,286047014.7,N
1575854775.8,286047009.9,N
1575854795.6,286047013.6,N
1575854815.4,286047011.0,N
1575854835.3,286047012.5,N
1575854855.1,286047017.7,Y
1575854875.9,286047012.6,P
1575854895.7,286047018.2,P
1575854915.5,286047020.4,P
1575854935.4,286047012.1,N
1575854955.2,286047007.9,N
1575854975.0,286047002.6,N
1575854975.9,286047002.6,N
1575854995.8,286046997.7,N
1575855015.6,286046991.7,N
1575855035.5,286046991.9,N
1575855055.3,286046992.2,N
1575855075.1,286046990.8,N
1575855095.9,286046989.5,N
1575855115.7,286046990.6,N
1575855135.6,286046995.7,N
1575855155.4,286047000.3,N
1575855175.2,286046996.4,N
1575855195.1,286046993.0,N
1575855196.0,286046993.0,N
1575855215.8,286046991.4,N
1575855235.6,286046990.9,N
1575855255.5,286046989.1,N
1575855275.3,286046988.7,N
1575855295.2,286046994.1,N
1575855315.9,286046993.5,N
1575855335.7,286046996.3,N
1575855355.6,286046994.9,N
1575855375.4,286046995.9,N
1575855395.2,286047011.9,N
1575855415.1,286046990.1,N
1575855416.0,286046990.1,N
1575855435.8,286046996.5,N
1575855455.7,286047007.0,N
1575855475.5,286047020.0,Y
1575855495.3,286047021.8,P
1575855515.2,286047015.4,N
1575855535.0,286047009.0,N
1575855535.9,286047009.0,N
1575855555.8,286047011.5,N
1575855575.6,286047014.8,N
1575855595.4,286047011.9,N
1575855615.3,286047017.3,N
1575855635.1,286047012.2,N
1575855655.8,286047016.4,N
1575855675.7,286047012.9,N
1575855695.5,286047013.1,N
1575855715.4,286047016.5,N
1575855735.2,286047011.0,N
1575855755.0,286047011.4,N
1575855755.9,286047011.4,N
1575855775.8,286047011.6,N
1575855795.6,286047016.7,Y
1575855815.5,286047001.7,P
1575855835.3,286047003.0,N
1575855855.1,286046997.8,N
1575855875.9,286046992.0,N
1575855895.7,286046985.3,N
1575855915.5,286046985.8,N
1575855935.4,286046984.5,N
1575855955.2,286046987.0,N
1575855975.1,286046985.6,N
1575855976.0,286046985.6,N
1575855995.8,286046984.0,N
1575856015.6,286046984.6,N
1575856035.5,286046992.9,N
1575856055.3,286047002.4,N
1575856075.2,286047000.5,N
1575856095.0,286046999.4,N
1575856095.9,286046999.4,N
1575856115.7,286046993.5,N
1575856135.6,286046991.8,N
1575856155.4,286046995.6,N
1575856175.3,286047001.9,N
1575856195.1,286047003.2,N
1575856215.8,286047008.0,N
1575856235.7,286047011.0,N
1575856255.5,286047011.4,N
1575856275.4,286047012.1,N
1575856295.2,286047011.7,N
1575856315.0,286047009.3,N
1575856315.9,286047009.3,N
1575856335.8,286047013.9,N
1575856355.6,286047016.5,N
1575856375.4,286047018.1,N
1575856395.3,286047017.8,N
1575856415.1,286047020.4,N
1575856435.9,286047013.8,N
1575856455.7,286047004.0,N
1575856475.5,286046997.9,N
1575856495.4,286046997.7,N
1575856515.2,286046997.1,N
1575856535.1,286046998.3,N
1575856536.0,286046998.3,N
1575856555.8,286047009.2,N
1575856575.6,286047011.2,N
1575856595.5,286047008.2,N
1575856615.3,286047011.9,N
1575856635.1,286047012.0,N
1575856655.9,286047017.2,N
1575856675.7,286047005.7,N
1575856695.6,286046998.3,N
1575856715.4,286046996.1,N
1575856735.2,286047002.8,N
1575856755.1,286046998.6,N
1575856756.0,286046998.6,N
1575856775.8,286046995.7,N
1575856795.7,286046995.3,N
